Location: Saint John
(45.2733°N, 66.0633°W)
Time: 20:01:16
(UTC-04:00)

BlueWalker 3 - Pass Details

Date: 02 December 2022
Orbit: 499 x 517 km, 53.2° (Epoch: 05 February)

Event Time Altitude Azimuth Distance (km) Brightness Sun altitude
Rises 18:25:08 0° 292° (WNW) 2,628 6.5 -17.4°
Reaches altitude 10° 18:27:38 10° 306° (NW) 1,737 5.2 -17.8°
Maximum altitude 18:30:56 25° 3° (N) 1,060 3.4 -18.4°
Enters shadow 18:31:22 25° 14° (NNE) 1,075 3.3 -18.5°
